AAL3521 KMIA-KEYW

Flight info

Callsign AAL3521
Flight time 0h 37m
Altitude 16000
Route MAYNR3 MAYNR FNTSY FNTSY1
Aircraft A319/M-SDE3FGHIRWY/LB1

Departure

Time 2026-05-04 01:06
Airport Miami International Airport (KMIA)

Arrival

Time 2026-05-04 01:43
Airport Key West International Airport (KEYW)
Time Latitude Longitude Altitude Speed Heading
2026-05-04 00:38 25.79821 -80.28368 20 ft 0 kts 176°
2026-05-04 00:56 25.79822 -80.28368 20 ft 1 kts 176°
2026-05-04 00:56 25.79845 -80.28370 20 ft 4 kts 178°
2026-05-04 00:56 25.79871 -80.28367 21 ft 4 kts 208°
2026-05-04 00:57 25.79886 -80.28349 19 ft 3 kts 264°
2026-05-04 00:57 25.79887 -80.28345 19 ft 0 kts 266°
2026-05-04 00:59 25.79886 -80.28352 19 ft 3 kts 268°
2026-05-04 00:59 25.79885 -80.28393 22 ft 7 kts 269°
2026-05-04 01:00 25.79927 -80.28435 20 ft 11 kts 337°
2026-05-04 01:00 25.79948 -80.28496 21 ft 7 kts 279°
2026-05-04 01:00 25.79983 -80.28529 21 ft 8 kts 350°
2026-05-04 01:00 25.80023 -80.28562 24 ft 8 kts 289°
2026-05-04 01:01 25.80023 -80.28628 24 ft 9 kts 267°
2026-05-04 01:01 25.80020 -80.28710 28 ft 12 kts 268°
2026-05-04 01:01 25.80016 -80.28815 27 ft 16 kts 266°
2026-05-04 01:01 25.80010 -80.28954 25 ft 20 kts 267°
2026-05-04 01:02 25.80004 -80.29111 25 ft 21 kts 267°
2026-05-04 01:02 25.79997 -80.29274 25 ft 22 kts 267°
2026-05-04 01:02 25.79989 -80.29461 18 ft 23 kts 267°
2026-05-04 01:02 25.79982 -80.29624 18 ft 19 kts 267°
2026-05-04 01:03 25.79975 -80.29778 18 ft 21 kts 267°
2026-05-04 01:03 25.79970 -80.29913 16 ft 10 kts 266°
2026-05-04 01:03 25.79972 -80.29944 15 ft 0 kts 284°
2026-05-04 01:04 25.79973 -80.29948 15 ft 3 kts 284°
2026-05-04 01:04 25.79992 -80.30021 16 ft 15 kts 285°
2026-05-04 01:04 25.80050 -80.30097 18 ft 13 kts
2026-05-04 01:05 25.80075 -80.30043 17 ft 0 kts 87°
2026-05-04 01:05 25.80075 -80.30026 16 ft 10 kts 87°
2026-05-04 01:05 25.80091 -80.29651 18 ft 89 kts 87°
2026-05-04 01:05 25.80131 -80.28714 25 ft 152 kts 87°
2026-05-04 01:06 25.80194 -80.27476 588 ft 158 kts 83°
2026-05-04 01:06 25.80201 -80.26244 1271 ft 164 kts 101°
2026-05-04 01:06 25.79711 -80.25097 1877 ft 174 kts 129°
2026-05-04 01:06 25.78770 -80.24127 2306 ft 194 kts 140°
2026-05-04 01:07 25.77699 -80.23085 2773 ft 216 kts 140°
2026-05-04 01:07 25.76503 -80.21925 3313 ft 241 kts 140°
2026-05-04 01:07 25.75173 -80.20636 3885 ft 265 kts 141°
2026-05-04 01:07 25.73606 -80.19512 4754 ft 272 kts 162°
2026-05-04 01:08 25.71760 -80.19150 5746 ft 271 kts 181°
2026-05-04 01:08 25.69860 -80.19084 6762 ft 275 kts 181°
2026-05-04 01:08 25.67934 -80.19027 7726 ft 278 kts 184°
2026-05-04 01:08 25.66005 -80.19231 8674 ft 281 kts 191°
2026-05-04 01:09 25.64689 -80.19413 9322 ft 283 kts 191°
2026-05-04 01:09 25.62726 -80.19734 10220 ft 286 kts 197°
2026-05-04 01:09 25.60839 -80.20484 10865 ft 297 kts 210°
2026-05-04 01:09 25.58978 -80.21650 11302 ft 316 kts 212°
2026-05-04 01:10 25.57054 -80.22883 12068 ft 323 kts 212°
2026-05-04 01:10 25.55096 -80.24135 12928 ft 327 kts 212°
2026-05-04 01:10 25.53112 -80.25395 13787 ft 330 kts 212°
2026-05-04 01:10 25.51107 -80.26662 14556 ft 333 kts 212°
2026-05-04 01:11 25.49085 -80.27938 15321 ft 336 kts 213°
2026-05-04 01:11 25.47040 -80.29225 15815 ft 339 kts 213°
2026-05-04 01:11 25.44995 -80.30513 15981 ft 338 kts 213°
2026-05-04 01:11 25.42543 -80.32056 16026 ft 335 kts 213°
2026-05-04 01:12 25.40937 -80.33068 16026 ft 334 kts 213°
2026-05-04 01:12 25.38920 -80.34336 16026 ft 333 kts 213°
2026-05-04 01:12 25.36902 -80.35604 16024 ft 333 kts 213°
2026-05-04 01:12 25.34889 -80.36869 16023 ft 333 kts 213°
2026-05-04 01:13 25.32899 -80.38121 16021 ft 333 kts 213°
2026-05-04 01:13 25.30861 -80.39400 16001 ft 332 kts 213°
2026-05-04 01:13 25.28856 -80.40661 16003 ft 331 kts 213°
2026-05-04 01:13 25.26850 -80.41925 16003 ft 331 kts 213°
2026-05-04 01:14 25.24850 -80.43188 16001 ft 331 kts 213°
2026-05-04 01:14 25.22760 -80.44280 16003 ft 335 kts 203°
2026-05-04 01:14 25.20518 -80.45026 16009 ft 336 kts 200°
2026-05-04 01:14 25.18272 -80.45757 16011 ft 337 kts 200°
2026-05-04 01:15 25.16025 -80.46488 16013 ft 337 kts 200°
2026-05-04 01:15 25.13778 -80.47222 16014 ft 337 kts 200°
2026-05-04 01:15 25.11531 -80.47957 16016 ft 337 kts 200°
2026-05-04 01:15 25.09283 -80.48696 16017 ft 337 kts 200°
2026-05-04 01:16 25.07035 -80.49432 16022 ft 337 kts 200°
2026-05-04 01:16 25.04786 -80.50169 16022 ft 337 kts 200°
2026-05-04 01:16 25.02540 -80.50903 16005 ft 337 kts 200°
2026-05-04 01:16 25.00293 -80.51636 16006 ft 337 kts 200°
2026-05-04 01:17 24.98041 -80.52371 16007 ft 337 kts 200°
2026-05-04 01:17 24.95819 -80.53096 16002 ft 337 kts 200°
2026-05-04 01:17 24.93567 -80.53831 16006 ft 338 kts 200°
2026-05-04 01:17 24.91316 -80.54567 16007 ft 338 kts 200°
2026-05-04 01:18 24.89065 -80.55302 16007 ft 338 kts 200°
2026-05-04 01:18 24.86811 -80.56044 16008 ft 337 kts 202°
2026-05-04 01:18 24.84728 -80.57166 16009 ft 332 kts 218°
2026-05-04 01:18 24.83049 -80.58871 16010 ft 328 kts 233°
2026-05-04 01:19 24.81889 -80.61014 16012 ft 326 kts 248°
2026-05-04 01:19 24.81323 -80.63425 16009 ft 327 kts 261°
2026-05-04 01:19 24.81049 -80.65914 16009 ft 327 kts 262°
2026-05-04 01:19 24.80773 -80.68403 16009 ft 327 kts 262°
2026-05-04 01:20 24.80494 -80.70888 16013 ft 328 kts 262°
2026-05-04 01:20 24.80216 -80.73353 15803 ft 320 kts 261°
2026-05-04 01:20 24.79942 -80.75762 15562 ft 315 kts 261°
2026-05-04 01:20 24.79672 -80.78146 15324 ft 313 kts 261°
2026-05-04 01:21 24.79403 -80.80523 15089 ft 312 kts 261°
2026-05-04 01:21 24.79135 -80.82893 14858 ft 311 kts 261°
2026-05-04 01:21 24.78866 -80.85252 14625 ft 311 kts 261°
2026-05-04 01:21 24.78596 -80.87594 14383 ft 306 kts 261°
2026-05-04 01:22 24.78327 -80.89918 14025 ft 305 kts 261°
2026-05-04 01:22 24.78060 -80.92234 13602 ft 305 kts 262°
2026-05-04 01:22 24.77793 -80.94549 13192 ft 304 kts 261°
2026-05-04 01:22 24.77528 -80.96855 12787 ft 303 kts 262°
2026-05-04 01:23 24.77264 -80.99154 12387 ft 302 kts 262°
2026-05-04 01:23 24.76912 -81.01421 11959 ft 301 kts 253°
2026-05-04 01:23 24.76102 -81.03535 11517 ft 301 kts 240°
2026-05-04 01:23 24.75002 -81.05495 11083 ft 301 kts 239°
2026-05-04 01:24 24.73903 -81.07453 10632 ft 301 kts 239°
2026-05-04 01:24 24.72810 -81.09412 10222 ft 300 kts 239°
2026-05-04 01:24 24.71737 -81.11334 10097 ft 289 kts 239°
2026-05-04 01:24 24.70706 -81.13178 9848 ft 279 kts 239°
2026-05-04 01:25 24.69700 -81.14978 9630 ft 275 kts 239°
2026-05-04 01:25 24.68702 -81.16765 9336 ft 273 kts 239°
2026-05-04 01:25 24.67708 -81.18539 9001 ft 271 kts 239°
2026-05-04 01:25 24.66723 -81.20302 8661 ft 270 kts 239°
2026-05-04 01:26 24.65741 -81.22057 8323 ft 269 kts 239°
2026-05-04 01:26 24.64739 -81.23789 7983 ft 268 kts 234°
2026-05-04 01:26 24.63535 -81.25337 7843 ft 267 kts 230°
2026-05-04 01:26 24.62317 -81.26883 7732 ft 267 kts 230°
2026-05-04 01:27 24.61107 -81.28433 7590 ft 267 kts 230°
2026-05-04 01:27 24.59897 -81.29981 7463 ft 267 kts 230°
2026-05-04 01:27 24.58686 -81.31523 7330 ft 266 kts 230°
2026-05-04 01:27 24.57480 -81.33058 7201 ft 266 kts 230°
2026-05-04 01:28 24.56277 -81.34602 7068 ft 265 kts 232°
2026-05-04 01:28 24.55325 -81.36328 6939 ft 264 kts 243°
2026-05-04 01:28 24.54489 -81.38122 6813 ft 264 kts 243°
2026-05-04 01:28 24.53532 -81.40149 6670 ft 264 kts 243°
2026-05-04 01:29 24.52796 -81.41701 6546 ft 263 kts 243°
2026-05-04 01:29 24.51950 -81.43482 6422 ft 263 kts 243°
2026-05-04 01:29 24.51106 -81.45262 6286 ft 262 kts 243°
2026-05-04 01:29 24.50261 -81.47042 6156 ft 263 kts 243°
2026-05-04 01:30 24.49420 -81.48815 6025 ft 261 kts 243°
2026-05-04 01:30 24.48581 -81.50583 5900 ft 261 kts 243°
2026-05-04 01:30 24.47740 -81.52352 5775 ft 261 kts 243°
2026-05-04 01:30 24.46926 -81.54142 5646 ft 262 kts 248°
2026-05-04 01:31 24.46492 -81.56067 5521 ft 261 kts 264°
2026-05-04 01:31 24.46451 -81.58059 5411 ft 262 kts 269°
2026-05-04 01:31 24.46440 -81.60059 5282 ft 261 kts 268°
2026-05-04 01:31 24.46423 -81.62051 5155 ft 261 kts 268°
2026-05-04 01:32 24.46404 -81.64036 5027 ft 258 kts 268°
2026-05-04 01:32 24.46384 -81.65955 4917 ft 245 kts 268°
2026-05-04 01:32 24.46367 -81.67779 4813 ft 232 kts 268°
2026-05-04 01:32 24.46351 -81.69505 4709 ft 221 kts 268°
2026-05-04 01:33 24.46334 -81.71146 4611 ft 209 kts 268°
2026-05-04 01:33 24.46318 -81.72708 4523 ft 203 kts 268°
2026-05-04 01:33 24.46301 -81.74239 4422 ft 203 kts 268°
2026-05-04 01:33 24.46284 -81.75793 4324 ft 203 kts 268°
2026-05-04 01:34 24.46267 -81.77341 4220 ft 203 kts 268°
2026-05-04 01:34 24.46251 -81.78893 4124 ft 203 kts 268°
2026-05-04 01:34 24.46235 -81.80438 4023 ft 202 kts 268°
2026-05-04 01:34 24.46219 -81.81982 3924 ft 202 kts 269°
2026-05-04 01:35 24.46201 -81.83518 3825 ft 200 kts 268°
2026-05-04 01:35 24.46184 -81.85045 3726 ft 200 kts 269°
2026-05-04 01:35 24.46169 -81.86573 3627 ft 201 kts 269°
2026-05-04 01:35 24.46154 -81.88109 3529 ft 201 kts 268°
2026-05-04 01:36 24.46139 -81.89638 3430 ft 201 kts 268°
2026-05-04 01:36 24.46122 -81.91165 3332 ft 199 kts 269°
2026-05-04 01:36 24.46104 -81.92683 3232 ft 199 kts 268°
2026-05-04 01:36 24.46090 -81.94202 3134 ft 199 kts 270°
2026-05-04 01:37 24.46497 -81.95642 3033 ft 201 kts 303°
2026-05-04 01:37 24.47587 -81.96550 2923 ft 200 kts 338°
2026-05-04 01:37 24.48957 -81.96699 2819 ft 197 kts 357°
2026-05-04 01:37 24.50315 -81.96704 2711 ft 192 kts 356°
2026-05-04 01:38 24.51620 -81.96718 2576 ft 183 kts 355°
2026-05-04 01:38 24.52852 -81.96732 2466 ft 171 kts 356°
2026-05-04 01:38 24.54000 -81.96577 2367 ft 164 kts 19°
2026-05-04 01:38 24.54910 -81.95859 2278 ft 161 kts 49°
2026-05-04 01:39 24.55385 -81.94761 2198 ft 159 kts 79°
2026-05-04 01:39 24.55428 -81.93554 2119 ft 159 kts 91°
2026-05-04 01:39 24.55440 -81.92348 2039 ft 156 kts 89°
2026-05-04 01:39 24.55454 -81.91173 1945 ft 156 kts 89°
2026-05-04 01:40 24.55469 -81.90007 1858 ft 146 kts 89°
2026-05-04 01:40 24.55482 -81.88885 1787 ft 146 kts 89°
2026-05-04 01:40 24.55496 -81.87778 1710 ft 144 kts 88°
2026-05-04 01:40 24.55509 -81.86680 1630 ft 141 kts 88°
2026-05-04 01:41 24.55522 -81.85599 1555 ft 141 kts 88°
2026-05-04 01:41 24.55533 -81.84520 1449 ft 142 kts 89°
2026-05-04 01:41 24.55545 -81.83433 1239 ft 143 kts 88°
2026-05-04 01:41 24.55555 -81.82344 1051 ft 142 kts 88°
2026-05-04 01:42 24.55565 -81.81266 862 ft 141 kts 87°
2026-05-04 01:42 24.55575 -81.80190 684 ft 140 kts 88°
2026-05-04 01:42 24.55584 -81.79127 502 ft 139 kts 87°
2026-05-04 01:42 24.55595 -81.78087 304 ft 134 kts 85°
2026-05-04 01:43 24.55602 -81.77065 100 ft 132 kts 86°
2026-05-04 01:43 24.55612 -81.76103 15 ft 109 kts 90°
2026-05-04 01:43 24.55616 -81.75629 21 ft 28 kts 89°
2026-05-04 01:43 24.55618 -81.75423 21 ft 27 kts 89°
2026-05-04 01:44 24.55604 -81.75265 20 ft 16 kts 127°
2026-05-04 01:44 24.55536 -81.75279 23 ft 11 kts 246°
2026-05-04 01:44 24.55532 -81.75365 21 ft 12 kts 270°
2026-05-04 01:44 24.55532 -81.75433 21 ft 7 kts 269°
2026-05-04 01:45 24.55531 -81.75493 20 ft 3 kts 269°
2026-05-04 01:45 24.55521 -81.75515 21 ft 6 kts 217°
2026-05-04 01:45 24.55473 -81.75557 20 ft 2 kts 229°
2026-05-04 01:46 24.55472 -81.75558 20 ft 0 kts 229°